Location: *
(44.3667°S, 173.3049°W)
Time: 21:47:03
(UTC+00:00)

Daily predictions for brighter satellites

Satellite Brightness Start Highest point End
(mag) Time Altitude Azimuth Time Altitude Azimuth Time Altitude Azimuth
ADEOS Rocket 4.4 13:22:05 10° SSE 13:25:47 31° ESE 13:25:47 31° ESE
USA 215 4.1 13:33:13 10° SE 13:38:53 42° SSW 13:38:53 42° SSW
Cosmos 2297 Rocket 4.1 13:46:21 23° S 13:46:21 23° S 13:48:55 10° S
ATLAS 2AS CENTAUR R/B 3.5 13:49:07 10° SSW 13:55:46 49° SE 14:02:49 10° ENE
Lacrosse 5 rocket 4.3 14:04:17 11° SSE 14:04:17 11° SSE 14:04:31 10° SSE
Cosmos 2227 Rocket 3.9 14:07:47 24° SSW 14:07:47 24° SSW 14:10:46 10° S
SL-4 R/B 4.1 14:07:26 31° SE 14:07:26 31° SE 14:10:44 10° ESE
CZ-2C R/B 4.3 14:11:22 23° S 14:11:22 23° S 14:13:07 10° S
ALOS 3.8 14:13:28 34° SSE 14:13:28 34° SSE 14:16:24 10° S
Nadezhda 4 Rocket 4.5 14:21:29 49° SSW 14:21:29 49° SSW 14:26:14 10° S
Cosmos 2227 4.4 14:25:08 69° ESE 14:25:08 69° ESE 14:30:27 10° SSE
Cosmos 2263 Rocket 2.4 14:27:00 66° SSE 14:27:00 66° SSE 14:31:53 10° SSE
SL-16 R/B 2.4 14:28:58 10° SSE 14:35:18 89° NE 14:35:46 78° NNW
Cosmos 1500 Rocket 4.3 14:43:31 50° E 14:43:34 50° E 14:47:57 10° SSE
USA 307 4.4 14:55:08 29° NE 14:55:13 29° NE 14:59:00 10° ESE
Cosmos 2251 Rocket 3.6 14:56:00 62° SW 14:56:00 62° SW 15:00:57 10° SSE
Cosmos 1943 3.0 14:50:40 10° SSW 14:56:23 73° WNW 15:02:03 10° NNE
METEOR-M 4.0 14:56:55 48° N 14:58:29 84° WNW 15:03:56 10° SSW
Cosmos 1484 Rocket 4.0 15:00:56 33° S 15:00:56 33° S 15:03:13 10° S
Cosmos 1092 Rocket 4.1 14:59:35 54° W 14:59:49 54° WSW 15:06:04 10° S
Cosmos 2292 Rocket 4.2 15:03:49 56° NNW 15:05:04 79° W 15:11:58 10° S
Cosmos 1603 3.6 14:59:30 10° SSW 15:08:32 24° N 15:10:40 10° N
USA 306 3.8 15:08:51 39° NNE 15:09:19 41° NE 15:13:24 10° ESE
ADEOS Rocket 3.6 15:07:45 10° S 15:12:45 35° WSW 15:12:45 35° WSW
Cosmos 1844 Rocket 3.5 15:09:22 18° N 15:13:15 47° ENE 15:18:38 10° SE
Cosmos 614 Rocket 4.4 15:14:11 44° WSW 15:14:11 44° WSW 15:19:07 10° S
USA 308 3.8 15:13:38 37° NNE 15:14:22 41° NE 15:18:27 10° ESE
Cosmos 1140 Rocket 3.5 15:12:40 43° NNW 15:14:25 83° ENE 15:19:46 10° SSE
Meteor 1-28 Rocket 4.0 15:11:59 10° S 15:14:41 42° SSW 15:14:41 42° SSW
S3M 4.4 15:09:27 10° S 15:15:53 68° E 15:22:17 10° NNE
Meteor 2-14 Rocket 4.4 15:21:10 35° NNW 15:23:47 64° W 15:30:00 10° S
Cosmos 1743 Rocket 3.6 15:24:09 58° WNW 15:24:39 62° W 15:29:09 10° S
Cosmos 407 Rocket 3.5 15:23:05 41° NNW 15:25:01 77° WSW 15:30:28 10° SSE
SJ-6F 4.3 15:25:27 29° N 15:27:33 71° WNW 15:31:50 10° SSW
Cosmos 1515 3.9 15:25:57 10° S 15:29:48 69° E 15:33:37 10° NNE
Cosmos 1190 Rocket 3.9 15:32:44 27° NNW 15:35:39 85° WSW 15:41:01 10° SSE
Cosmos 967 Rocket 4.4 15:32:32 30° NW 15:35:53 77° SW 15:42:19 10° SSE
Cosmos 2228 Rocket 3.0 15:31:27 10° SSW 15:35:57 72° W 15:40:24 10° N
CZ-4B R/B 3.9 15:36:52 10° NNE 15:40:31 69° ESE 15:44:18 10° S
Lacrosse 5 rocket 3.6 15:40:01 10° SSW 15:41:35 12° S 15:43:08 10° SSE
BREEZE-M DEB (TANK) 4.4 15:42:43 30° WNW 15:44:09 35° NNW 15:55:02 10° NNE
SJ-12 3.8 15:41:29 10° NNE 15:45:34 88° WNW 15:49:44 10° SSW
RESURS DK-1 3.1 15:42:07 10° SSW 15:46:16 55° ESE 15:50:22 10° NE
Meteor 2-16 Rocket 4.4 15:40:49 13° NNW 15:46:19 66° W 15:52:28 10° S
SL-4 R/B 2.6 15:42:59 19° SW 15:46:30 70° SSE 15:51:20 10° ENE
ATLAS 2AS CENTAUR R/B 3.1 15:40:07 10° SW 15:46:40 43° WNW 15:53:36 10° N
SL-24 R/B 3.5 15:44:10 10° S 15:47:58 78° WSW 15:50:17 22° NNW
MINOTAUR 4 R/B 4.4 15:44:41 10° S 15:48:11 43° WSW 15:48:38 40° W
ALOS 4.2 15:51:57 14° SW 15:51:57 14° SW 15:52:54 10° SW
Meteor 1-31 Rocket 2.7 15:45:46 10° NNE 15:49:37 85° ESE 15:53:30 10° SSW
Meteor 1-20 Rocket 4.1 15:44:41 11° NNW 15:49:58 73° WSW 15:55:39 10° S
Lacrosse 4 Rocket 4.4 15:51:35 10° NE 15:54:29 17° ENE 15:57:23 10° ESE
ERBS 4.3 15:52:03 11° N 15:54:36 23° NE 15:57:19 10° ESE
Cosmos 1553 Rocket 4.4 15:52:27 10° SSW 15:58:06 39° W 16:03:39 10° NNW
Okean 1 3.2 15:57:18 10° S 16:01:24 78° W 16:05:25 10° N
Cosmos 1500 3.1 15:58:46 10° N 16:02:38 85° W 16:06:36 10° S
Cosmos 1602 4.0 16:00:51 20° NW 16:03:17 47° WSW 16:07:07 10° S
Cosmos 1844 3.7 15:58:53 10° NNW 16:04:36 84° WSW 16:10:20 10° SSE
YAOGAN 6 2.4 16:01:12 10° N 16:04:43 69° W 16:08:21 10° SSW
Meteor 1-27 Rocket 4.5 16:02:11 10° SSW 16:06:58 29° W 16:11:47 10° NNW
Cosmos 2263 Rocket 3.8 16:08:42 14° WSW 16:10:56 18° SW 16:14:42 10° S
Cosmos 1707 Rocket 3.5 16:06:50 10° SSW 16:11:15 65° W 16:15:37 10° N
Cosmos 1862 Rocket 3.9 16:06:57 10° S 16:11:23 71° E 16:15:44 10° NNE
Cosmos 839 Rocket 4.3 16:07:29 13° NW 16:13:22 70° SW 16:21:22 10° SSE
Sich 1 3.6 16:11:11 13° NW 16:14:51 39° WSW 16:19:01 10° S
SL-16 R/B 4.0 16:14:03 10° SSW 16:18:03 18° SW 16:20:52 14° W
BREEZE-M DEB (TANK) 4.0 16:17:00 14° NNW 16:18:59 42° NE 16:23:12 10° ESE
USA 305 3.1 16:18:09 18° WNW 16:21:19 62° SSW 16:25:38 10° SE
Cosmos 1633 Rocket 3.0 16:17:04 10° NNW 16:21:28 72° W 16:25:55 10° S
Envisat 3.2 16:16:36 10° N 16:21:34 50° W 16:26:36 10° SSW
Meteor 2-4 Rocket 4.0 16:16:30 10° S 16:22:34 85° E 16:28:32 10° N
MOS 1 Rocket 3.6 16:18:26 10° S 16:23:55 84° WSW 16:29:08 10° NNW
Cosmos 1763 Rocket 3.5 16:20:40 10° SSW 16:26:03 85° WNW 16:31:24 10° NNE
Cosmos 1340 Rocket 2.9 16:24:29 10° NNW 16:28:21 54° WSW 16:32:17 10° S
Cosmos 1655 Rocket 4.5 16:24:12 10° NW 16:30:08 41° WSW 16:36:12 10° S
Cosmos 676 Rocket 4.4 16:28:42 10° NW 16:33:46 46° WSW 16:38:57 10° S
ADEOS 3.9 16:28:55 10° N 16:33:55 45° W 16:39:00 10° SSW
USA 307 3.2 16:31:13 13° WNW 16:34:59 56° SSW 16:39:16 10° SE
ISS -2.1 16:32:18 10° NNW 16:35:24 32° NE 16:38:31 10° ESE
Milstar 3 4.3 16:32:15 10° WNW 16:38:24 23° N 16:43:30 10° NE
CZ-4C R/B 4.5 16:36:38 10° S 16:40:26 29° WSW 16:44:06 10° NW
Cosmos 2315 Rocket 4.2 16:36:28 10° SSW 16:42:32 50° W 16:48:37 10° NNW
Cosmos 1666 3.0 16:41:50 10° NNW 16:45:37 49° WSW 16:49:28 10° S
H-2A R/B 4.0 16:43:34 10° NW 16:46:33 21° W 16:49:34 10° SW
USA 306 3.6 16:45:05 10° W 16:49:14 44° SSW 16:53:25 10° SE
H-2A R/B 4.2 16:45:38 10° NE 16:50:22 32° ESE 16:55:02 10° S
Cosmos 2242 Rocket 4.2 16:49:30 10° S 16:54:00 65° E 16:58:26 10° NNE
USA 308 3.5 16:50:10 10° W 16:54:19 44° SSW 16:58:29 10° SE
Cosmos 1833 Rocket 3.4 16:49:34 10° SSW 16:55:15 60° ESE 17:00:50 10° NE
NOAA 12 4.1 16:50:46 10° N 16:56:07 74° WNW 17:01:34 10° SSW
Cosmos 1844 Rocket 3.6 16:52:27 10° WNW 16:57:20 30° SW 17:02:17 10° S
SL-08 ROCKET BODY 4.4 16:51:47 10° N 16:57:46 79° W 17:03:58 10° S
